Погода в Новохопёрском

Россия / Воронежская область     51°04′51″N   41°34′04″E
темп.,
°C
ветер,
м/с
пор.,
м/с
влажн.,
%
обл.,
%
осадки,
мм/ч
давл.,
гПа
погр.,
м
17 мая, пн
пн1700:00+18вюв4762100 0.0 101181
03:00+17юв3358100 0.0 101131
06:00+16вюв41067100 0.0 1011168
09:00+22вюв6125345 0.0 1011425
12:00+26юв7104332 0.0 1011765
15:00+27вюв7134799 0.0 10101889
18:00+24вюв512545 0.0 1009324
21:00+18вюв496850 0.0 1009137
18 мая, вт
вт1800:00+17вюв5146092 0.0 1009240
03:00+15вюв4106017 0.0 1008130
06:00+15вюв4116422 0.0 1009187
09:00+21юв59492 0.0 1008427
12:00+25юв694395 0.0 1007924
15:00+26ююв61245100 0.0 10061942
18:00+22ююз3863100 0.0 1007197
21:00+16з3793100 0.0 1009187
19 мая, ср
ср1900:00+15з008797 0.0 100811
03:00+15ююз358990 0.4 1009125
06:00+15ююз239193 0.8 1007128
09:00+19юз33696 0.9 1007869
12:00+22ю455266 0.0 10081700
15:00+23ююв5750100 0.0 10072241
18:00+15ююз41092100 3.9 1009482
21:00+14ю5996100 5.4 1010444
20 мая, чт
чт2000:00+12ю379591 0.9 1010199
03:00+11ююв599731 1.0 1011319
06:00+12ю4993100 0.0 1010314
09:00+15ю788295 0.1 1010909
12:00+15ю6884100 0.3 1011676
15:00+17ююз6977100 1.4 10111017
18:00+17юз610793 0.8 1012754
21:00+12ююз37915 0.8 1014139
21 мая, пт
пт2100:00+11ююз499420 0.0 1015177
03:00+11ююз479399 0.0 1016107
06:00+13ю3887100 0.0 1017187
09:00+19ю566894 0.0 1017764
12:00+22ю565388 0.0 10181693
15:00+24ююв5652100 0.0 10171730
18:00+22юв3468100 0.0 1017109
21:00+19вюв3573100 0.1 101883